{"data":{"norad_id":55312,"intl_designator":"2023-010AV","name":"STARLINK-5296","alt_names":[],"object_type":"PAYLOAD","status":"ACTIVE","operator":null,"country":"US","launch_date":"2023-01-19","launch_site_code":"AFWTR","launch_vehicle":null,"mission":null,"orbit_class":"UNKNOWN","rcs_meters":null,"size_class":null,"mass_kg":null,"dimensions":null,"purposes":["comms"],"wikipedia_slug":null,"has_3d_model":false,"image_url":null,"decayed_at":null,"tle_current":{"epoch":"2026-05-25T03:04:02.211168Z","epoch_age_seconds":60213,"freshness":"FRESH","line1":"1 55312U 23010AV  26145.12780337  .00000442  00000+0  44801-4 0  9991","line2":"2 55312  69.9986 171.5476 0003647 266.7924  93.2818 14.98331041186080","mean_motion":14.98331041,"eccentricity":0.0003647,"inclination_deg":69.9986,"raan_deg":171.5476,"arg_perigee_deg":266.7924,"mean_anomaly_deg":93.2818,"bstar":4.4801e-5,"rev_number":18608,"period_min":96.106932353142,"perigee_km":569.51793756637,"apogee_km":574.58740591294,"semimajor_km":6950.1896717397,"source":"CELESTRAK","updated_at":"2026-05-25T13:38:17.757659Z"}}}